Regional Weather Roundup
Issued by NWS Sterling, VA

Home | Current Version | Previous Version | Graphics & Text | Print | Product List | Glossary On
Versions: 1 2 3 4 5 6 7 8 9 10 11 12 13 14 15 16 17 18 19 20 21 22 23 24 25 26 27
000
ASUS41 KLWX 240110
RWRLWX

REGIONAL WEATHER ROUNDUP
NATIONAL WEATHER SERVICE BALTIMORE MD/WASHINGTON DC
900 PM EDT SAT JUL 23 2016

Note: "FAIR" indicates few or no clouds below 12,000 feet
with no significant weather and/or obstructions to visibility.
 TC=TEMPERATURE CELSIUS

 * =Non NWS site. Station does not report precipitation (e.g. rain,
    snow, etc.), thunder, or fog.

DCZ001-MDZ009-015-VAZ040>042-051-053>054-240200-
WASHINGTON METRO

CITY           SKY/WX    TMP DP  RH WIND       PRES   REMARKS
WASHINGTON NAT MOCLDY    92  70  48 SW8       29.88S HX  97
DULLES         LGT RAIN  83  70  64 SW5       29.90S
ANDREWS AFB    PTCLDY    87  72  59 SW7       29.88S HX  94
FT BELVOIR     FAIR      88  75  66 CALM      29.89S HX  97
QUANTICO       FAIR      86  77  74 NW3       29.89S HX  97
COLLEGE PARK*  FAIR      90  70  51 W3        29.88R HX  95
LEESBURG*      FAIR      88  77  70 CALM      29.91S HX 100
GAITHERSBURG*  CLEAR     81  72  74 CALM      29.94S

$$

MDZ006>007-011-014-240200-
BALTIMORE METRO

CITY           SKY/WX    TMP DP  RH WIND       PRES   REMARKS
BWI AIRPORT    CLOUDY    78  72  81 SE6       29.88S
MD SCIENCE CTR   N/A     84  70  62 MISG      29.89S
MARTIN STATE   CLEAR     82  72  69 CALM      29.89S
ANNAPOLIS      LGT RAIN  80  74  81 SE13      29.90R
FORT MEADE*    CLOUDY    77  72  83 S5        29.91S

$$

MDZ012-015-019>023-240200-
MARYLAND EASTERN SHORE

CITY           SKY/WX    TMP DP  RH WIND       PRES   REMARKS
OCEAN CITY     CLOUDY    85  77  77 SW5       29.89R HX  95
SALISBURY      PTCLDY    83  76  79 S7        29.88S HX  91
BAY BRIDGE AP* TSTM      79  73  83 SW12G20   29.91R
CAMBRIDGE*     CLEAR     82  77  83 CALM      29.88R HX  91
EASTON*        MOCLDY    91  81  70 NW5       29.92R HX 110

$$

MDZ017>025-240200-
SOUTHERN MARYLAND

CITY           SKY/WX    TMP DP  RH WIND       PRES   REMARKS
PATUXENT RIVER CLEAR     88  71  57 SW7       29.88S HX  94
ST INIGOES     CLEAR     89  76  65 SW8       29.88S HX 100
LEONARDTOWN*   CLEAR     86  70  58 CALM      29.91S HX  90

$$

MDZ003>005-240200-
NORTH CENTRAL MARYLAND

CITY           SKY/WX    TMP DP  RH WIND       PRES   REMARKS
FREDERICK*     CLEAR     82  73  74 S3        29.92S
HAGERSTOWN APT CLEAR     86  70  58 SW5       29.91S HX  90

$$

MDZ501>502-240200-
WESTERN MARYLAND

CITY           SKY/WX    TMP DP  RH WIND       PRES   REMARKS
OAKLAND*       PTCLDY    72  68  88 CALM      30.11S
CUMBERLAND*    PTCLDY    86  70  58 W7        29.99R HX  90

$$

VAZ025>031-240200-
SHENANDOAH VALLEY

CITY           SKY/WX    TMP DP  RH WIND       PRES   REMARKS
WINCHESTER*    FAIR      86  68  54 NW6       29.93S
FRONT ROYAL*   FAIR      86  70  58 CALM      29.93S HX  90
LURAY*         FAIR      79  77  94 CALM      29.95S
NEW MARKET*    MOCLDY   N/A N/A N/A CALM      29.95R
STAUNTON*      MOCLDY    84  70  64 N5        29.99R
WAYNESBORO*    FAIR      83  68  59 SW3       29.99S

$$

WVZ021-048>050-054>055-240200-
EASTERN WEST VIRGINIA PANHANDLE

CITY           SKY/WX    TMP DP  RH WIND       PRES   REMARKS
MARTINSBURG    FAIR      89  67  47 NW7       29.91S HX  92
PETERSBURG*    FAIR      83  71  66 W3        29.97R

$$

VAZ036>039-050-240200-
CENTRAL FOOTHILLS

CITY           SKY/WX    TMP DP  RH WIND       PRES   REMARKS
CHARLOTTESVILL FAIR      89  71  55 SW6       29.92S HX  95
CULPEPER*      MOCLDY    84  79  83 CALM      29.91S HX  96
ORANGE*          N/A     82  73  74 CALM      29.94S
GORDONSVILLE*  FAIR      80  77  88 CALM      29.92S
WARRENTON*     FAIR      85  71  62 CALM      29.90F HX  90

$$

VAZ055>057-240200-
NORTH AND CENTRAL PIEDMONT

CITY           SKY/WX    TMP DP  RH WIND       PRES   REMARKS
FREDERICKSBRG*   N/A     85  77  77 CALM      29.88F HX  95
STAFFORD*      FAIR      82  74  76 CALM      29.93F

$$

NCZ024-NYZ072-PAZ021-071-VAZ022-071-240200-
OTHER REGIONAL OBSERVATIONS

CITY           SKY/WX    TMP DP  RH WIND       PRES   REMARKS
NEW YORK CITY  CLEAR     90  52  27 VRB3      29.87R
PHILADELPHIA   PTCLDY    83  70  64 SW6       29.88R
PITTSBURGH     MOCLDY    78  71  79 CALM      29.98R
ROANOKE        FAIR      87  67  51 SE6       30.00R HX  90
RICHMOND       FAIR      82  76  81 S6        29.92R
RALEIGH        PTCLDY    86  75  69 S5        29.96R HX  95

$$

ANZ530>537-240200-
MARINE OBSERVATIONS

STATION/POSITION TIME  TEMP    WIND        PRES
                       AIR SEA DIR/SP/G
                 (UTC) (F)     (DEG/KT/KT) (MB)
THOMAS PT LIGHT  0100   83 82  110/  8/ 11 1013.8R
BALT KEY BRIDGE  0042          120/  4/  5 1011.5S
COVE POINT       0042          280/  8/ 11 1012.2F
LEWISETTA        0042          250/  7/  8 1011.9
SOLOMONS ISLAND  0036          250/  6/  8   N/A
PINEY POINT      0036          260/  4/  4   N/A

$$





USA.gov is the U.S. government's official web portal to all federal, state and local government web resources and services.